Flag for United Kingdom Weather past 2 weeks in Newport, Wales, United Kingdom

Now
50 °F

Fog.


Feels Like: 47 °F
Forecast: 41 / 53 °F
Wind: 8 mph from Southwest

Location: Bristol / Lulsgate

Current Time: Apr 25, 2015 at 5:31:19 AM

Latest Report: Apr 25, 2015 at 4:20 AM


Visibility: 1 mi

Pressure: 29.68 "Hg

Humidity: 100%

Dew point: 50 °F

Location of NewportLocation

Historic Weather in Newport — Graph

°F

Newport temperature yesterday

Maximum temperature yesterday: 57 °F (at 1:20 PM)
Minimum temperature yesterday: 43 °F (at 6:20 AM)
Average temperature yesterday: 51 °F

Past Weeks' High & Low Weather Summary

 TemperatureHumidityPressure
High63 °F (Apr 10, 12:50 PM)100% (Apr 12, 9:20 PM)30.54 "Hg (Apr 12, 9:20 PM)
Low34 °F (Apr 20, 4:50 AM)39% (Apr 21, 2:20 PM)29.68 "Hg (Apr 25, 2:50 AM)
Average50 °F73%30.19 "Hg
* Reported Apr 10 3:20 AM — Apr 25 3:50 AM, Newport, Weather by CustomWeather, © 2015

Note: Actual official high and low records may vary slightly from our data, if they occured in-between our weather recording intervals... More about our weather records

Advertising

Newport weather history for previous 24 hours

 ConditionsComfort  
Time TempWeatherWind HumidityBarometerVisibility
3:50 AM
Sat, Apr 25
50 °FFog.9 mph100%29.68 "Hg1 mi
3:20 AM50 °FFog.9 mph100%29.68 "Hg1 mi
2:50 AM50 °FFog.8 mph100%29.68 "Hg1 mi
2:20 AM50 °FFog.8 mph100%29.71 "Hg2 mi
1:50 AM50 °FLow clouds.8 mph100%29.71 "Hg5 mi
1:20 AM50 °FLow clouds.8 mph100%29.71 "Hg5 mi
12:50 AM50 °FPassing clouds.8 mph100%29.74 "Hg5 mi
12:20 AM50 °FLow clouds.8 mph100%29.74 "Hg5 mi
11:50 PM
Fri, Apr 24
50 °FLow clouds.8 mph100%29.74 "Hg5 mi
11:20 PM50 °FLow clouds.8 mph100%29.74 "HgN/A
10:50 PM52 °FPassing clouds.10 mph94%29.74 "HgN/A
10:20 PM52 °FPassing clouds.9 mph94%29.74 "HgN/A
9:50 PM52 °FPartly cloudy.10 mph94%29.77 "Hg4 mi
9:20 PM52 °FPartly sunny.8 mph94%29.77 "Hg4 mi
8:50 PM52 °FDrizzle. Broken clouds.8 mph94%29.77 "Hg4 mi
8:20 PM52 °FBroken clouds.9 mph94%29.77 "Hg6 mi
7:50 PM52 °FPartly sunny.9 mph94%29.77 "HgN/A
7:20 PM54 °FBroken clouds.13 mph88%29.77 "HgN/A
6:50 PM54 °FPartly sunny.9 mph88%29.77 "HgN/A
6:20 PM54 °FPartly sunny.12 mph88%29.80 "HgN/A
5:50 PM55 °FPartly sunny.12 mph77%29.80 "HgN/A
5:20 PM57 °FPartly sunny.13 mph72%29.80 "HgN/A
4:50 PM57 °FPartly sunny.12 mph72%29.80 "HgN/A
4:20 PM55 °FScattered clouds.14 mph77%29.80 "HgN/A
3:50 PM55 °FScattered clouds.12 mph77%29.83 "HgN/A
3:20 PM57 °FBroken clouds.13 mph72%29.83 "HgN/A
2:50 PM57 °FPartly sunny.10 mph67%29.83 "HgN/A
2:20 PM57 °FPassing clouds.10 mph67%29.86 "HgN/A
1:50 PM57 °FPassing clouds.9 mph63%29.86 "HgN/A
1:20 PM57 °FScattered clouds.12 mph63%29.86 "HgN/A
12:50 PM55 °FScattered clouds.12 mph72%29.86 "HgN/A
12:20 PM55 °FScattered clouds.12 mph72%29.86 "Hg6 mi
11:50 AM54 °FScattered clouds.10 mph82%29.89 "Hg6 mi
11:20 AM54 °FPartly sunny.14 mph77%29.89 "Hg6 mi
10:50 AM52 °FPartly sunny.9 mph82%29.89 "Hg5 mi
10:20 AM48 °FPartly sunny.8 mph94%29.89 "Hg3 mi
9:50 AM48 °FPartly sunny.9 mph87%29.89 "Hg2 mi
9:20 AM48 °FBroken clouds.6 mph87%29.89 "Hg2 mi
8:50 AM46 °FScattered clouds.7 mph93%29.89 "Hg3 mi
8:20 AM46 °FFog.7 mph87%29.89 "Hg3 mi
7:20 AM45 °FClear.6 mph87%29.89 "Hg4 mi
6:50 AM43 °FClear.6 mph93%29.89 "Hg4 mi
6:20 AM43 °FClear.6 mph87%29.89 "Hg4 mi
5:50 AM45 °FClear.7 mph81%29.89 "Hg4 mi
5:20 AM45 °FClear.6 mph81%29.89 "Hg4 mi
Weather by CustomWeather, © 2015

See weather overviewHow to use our weather pages